Time,TemperatureF,DewpointF,PressureIn,WindDirection,WindDirectionDegrees,WindSpeedMPH,WindSpeedGustMPH,Humidity,HourlyPrecipIn,Conditions,Clouds,dailyrainin,SoftwareType,DateUTC
2013-12-24 00:03:00,11.8,11.0,25.83,NW,315,2.3,4.0,82,0.00,,,0.00,Rainwise IP-100,2013-12-24 07:03:00,
2013-12-24 00:08:00,11.8,11.0,25.83,NW,315,2.1,3.0,83,0.00,,,0.00,Rainwise IP-100,2013-12-24 07:08:00,
2013-12-24 00:13:00,11.8,11.0,25.83,NW,315,0.0,3.0,83,0.00,,,0.00,Rainwise IP-100,2013-12-24 07:13:00,
2013-12-24 00:18:00,11.7,11.0,25.82,NW,315,0.0,0.0,83,0.00,,,0.00,Rainwise IP-100,2013-12-24 07:18:00,
2013-12-24 00:23:00,11.8,11.0,25.82,NW,315,2.8,4.0,83,0.00,,,0.00,Rainwise IP-100,2013-12-24 07:23:00,
2013-12-24 00:28:00,12.0,11.0,25.82,NW,315,2.6,4.0,83,0.00,,,0.00,Rainwise IP-100,2013-12-24 07:28:00,
2013-12-24 00:33:00,12.0,11.0,25.82,WNW,292,3.7,3.7,83,0.00,,,0.00,Rainwise IP-100,2013-12-24 07:33:00,
2013-12-24 00:38:00,12.0,11.0,25.82,WNW,292,3.7,4.0,83,0.00,,,0.00,Rainwise IP-100,2013-12-24 07:38:00,
2013-12-24 00:43:00,12.1,11.0,25.82,West,270,1.6,4.0,83,0.00,,,0.00,Rainwise IP-100,2013-12-24 07:43:00,
2013-12-24 00:48:00,12.4,11.0,25.81,West,270,0.0,2.0,83,0.00,,,0.00,Rainwise IP-100,2013-12-24 07:48:00,
2013-12-24 00:53:00,12.6,11.0,25.81,West,270,1.9,3.0,83,0.00,,,0.00,Rainwise IP-100,2013-12-24 07:53:00,
2013-12-24 00:58:00,12.8,11.0,25.81,West,270,2.3,3.0,83,0.00,,,0.00,Rainwise IP-100,2013-12-24 07:58:00,
2013-12-24 01:03:00,12.9,11.0,25.80,West,270,3.5,4.0,84,0.00,,,0.00,Rainwise IP-100,2013-12-24 08:03:00,
2013-12-24 01:08:00,12.7,11.0,25.81,West,270,2.6,6.0,83,0.00,,,0.00,Rainwise IP-100,2013-12-24 08:08:00,
2013-12-24 01:13:00,12.6,11.0,25.80,West,270,2.1,5.0,83,0.00,,,0.00,Rainwise IP-100,2013-12-24 08:13:00,
2013-12-24 01:18:00,12.7,11.0,25.80,West,270,4.0,4.0,83,0.00,,,0.00,Rainwise IP-100,2013-12-24 08:18:00,
2013-12-24 01:23:00,12.8,11.0,25.80,West,270,4.0,5.0,83,0.00,,,0.00,Rainwise IP-100,2013-12-24 08:23:00,
2013-12-24 01:28:00,12.4,11.0,25.80,WNW,292,3.3,4.0,83,0.00,,,0.00,Rainwise IP-100,2013-12-24 08:28:00,
2013-12-24 01:33:00,11.9,11.0,25.80,WNW,292,1.4,4.0,83,0.00,,,0.00,Rainwise IP-100,2013-12-24 08:33:00,
2013-12-24 01:38:00,11.7,11.0,25.80,West,270,2.3,3.0,83,0.00,,,0.00,Rainwise IP-100,2013-12-24 08:38:00,
2013-12-24 01:43:00,11.7,11.0,25.79,WNW,292,1.2,3.0,83,0.00,,,0.00,Rainwise IP-100,2013-12-24 08:43:00,
2013-12-24 01:48:00,11.7,11.0,25.79,West,270,2.1,3.0,84,0.00,,,0.00,Rainwise IP-100,2013-12-24 08:48:00,
2013-12-24 01:53:00,11.7,11.0,25.79,WNW,292,4.4,4.4,84,0.00,,,0.00,Rainwise IP-100,2013-12-24 08:53:00,
2013-12-24 01:58:00,11.7,11.0,25.78,NW,315,5.4,6.0,84,0.00,,,0.00,Rainwise IP-100,2013-12-24 08:58:00,
2013-12-24 02:03:00,11.7,11.0,25.78,NW,315,0.0,6.0,84,0.00,,,0.00,Rainwise IP-100,2013-12-24 09:03:00,
2013-12-24 02:08:00,11.7,11.0,25.78,NNW,337,1.4,4.0,84,0.00,,,0.00,Rainwise IP-100,2013-12-24 09:08:00,
2013-12-24 02:13:00,11.8,11.0,25.77,NNW,337,0.0,2.0,84,0.00,,,0.00,Rainwise IP-100,2013-12-24 09:13:00,
2013-12-24 02:18:00,12.1,11.0,25.78,WSW,247,0.0,2.0,84,0.00,,,0.00,Rainwise IP-100,2013-12-24 09:18:00,
2013-12-24 02:23:00,12.2,11.0,25.78,WSW,247,1.9,2.0,85,0.00,,,0.00,Rainwise IP-100,2013-12-24 09:23:00,
2013-12-24 02:28:00,12.2,11.0,25.77,SSW,202,2.6,2.6,84,0.00,,,0.00,Rainwise IP-100,2013-12-24 09:28:00,
2013-12-24 02:33:00,11.8,11.0,25.77,SSW,202,1.9,3.0,83,0.00,,,0.00,Rainwise IP-100,2013-12-24 09:33:00,
2013-12-24 02:38:00,11.3,8.0,25.77,WSW,247,3.7,3.7,83,0.00,,,0.00,Rainwise IP-100,2013-12-24 09:38:00,
2013-12-24 02:43:00,11.1,8.0,25.77,WNW,292,3.7,4.0,83,0.00,,,0.00,Rainwise IP-100,2013-12-24 09:43:00,
2013-12-24 02:48:00,11.0,8.0,25.77,West,270,2.6,4.0,84,0.00,,,0.00,Rainwise IP-100,2013-12-24 09:48:00,
2013-12-24 02:53:00,11.1,8.0,25.77,West,270,4.9,4.9,84,0.00,,,0.00,Rainwise IP-100,2013-12-24 09:53:00,
2013-12-24 02:58:00,11.3,8.0,25.76,West,270,3.0,5.0,84,0.00,,,0.00,Rainwise IP-100,2013-12-24 09:58:00,
2013-12-24 03:03:00,11.4,8.0,25.76,West,270,5.1,7.0,85,0.00,,,0.00,Rainwise IP-100,2013-12-24 10:03:00,
2013-12-24 03:08:00,11.7,11.0,25.77,SW,225,4.2,5.0,84,0.00,,,0.00,Rainwise IP-100,2013-12-24 10:08:00,
2013-12-24 03:13:00,12.0,11.0,25.76,WSW,247,4.4,6.0,84,0.00,,,0.00,Rainwise IP-100,2013-12-24 10:13:00,
2013-12-24 03:18:00,11.9,11.0,25.76,WSW,247,4.4,6.0,84,0.00,,,0.00,Rainwise IP-100,2013-12-24 10:18:00,
2013-12-24 03:23:00,11.9,11.0,25.76,SSW,202,4.0,5.0,84,0.00,,,0.00,Rainwise IP-100,2013-12-24 10:23:00,
2013-12-24 03:28:00,12.3,11.0,25.76,SW,225,3.5,4.0,85,0.00,,,0.00,Rainwise IP-100,2013-12-24 10:28:00,
2013-12-24 03:33:00,12.7,11.0,25.76,SW,225,4.9,4.9,85,0.00,,,0.00,Rainwise IP-100,2013-12-24 10:33:00,
2013-12-24 03:38:00,13.2,11.0,25.75,WSW,247,4.0,6.0,85,0.00,,,0.00,Rainwise IP-100,2013-12-24 10:38:00,
2013-12-24 03:43:00,13.8,11.0,25.75,SSW,202,3.7,5.0,85,0.00,,,0.00,Rainwise IP-100,2013-12-24 10:43:00,
2013-12-24 03:48:00,14.1,11.0,25.75,SW,225,3.3,5.0,85,0.00,,,0.00,Rainwise IP-100,2013-12-24 10:48:00,
2013-12-24 03:53:00,14.2,11.0,25.74,SW,225,3.0,3.0,84,0.00,,,0.00,Rainwise IP-100,2013-12-24 10:53:00,
2013-12-24 03:58:00,14.5,14.0,25.74,SSW,202,4.9,6.0,84,0.00,,,0.00,Rainwise IP-100,2013-12-24 10:58:00,
2013-12-24 04:03:00,15.6,14.0,25.74,SW,225,2.8,6.0,84,0.00,,,0.00,Rainwise IP-100,2013-12-24 11:03:00,
2013-12-24 04:08:00,16.2,14.0,25.74,WSW,247,5.6,6.0,84,0.00,,,0.00,Rainwise IP-100,2013-12-24 11:08:00,
2013-12-24 04:13:00,15.8,11.0,25.74,WSW,247,5.6,9.0,83,0.00,,,0.00,Rainwise IP-100,2013-12-24 11:13:00,
2013-12-24 04:18:00,15.6,11.0,25.74,SW,225,4.9,12.0,83,0.00,,,0.00,Rainwise IP-100,2013-12-24 11:18:00,
2013-12-24 04:23:00,16.3,11.0,25.74,WSW,247,4.4,8.0,83,0.00,,,0.00,Rainwise IP-100,2013-12-24 11:23:00,
2013-12-24 04:28:00,17.1,14.0,25.74,SW,225,4.7,8.0,83,0.00,,,0.00,Rainwise IP-100,2013-12-24 11:28:00,
2013-12-24 04:33:00,17.5,14.0,25.74,WSW,247,3.3,8.0,82,0.00,,,0.00,Rainwise IP-100,2013-12-24 11:33:00,
2013-12-24 04:38:00,17.7,14.0,25.73,WSW,247,6.3,7.0,82,0.00,,,0.00,Rainwise IP-100,2013-12-24 11:38:00,
2013-12-24 04:43:00,17.8,14.0,25.73,WSW,247,5.8,7.0,82,0.00,,,0.00,Rainwise IP-100,2013-12-24 11:43:00,
2013-12-24 04:48:00,17.8,14.0,25.73,SW,225,5.1,7.0,81,0.00,,,0.00,Rainwise IP-100,2013-12-24 11:48:00,
2013-12-24 04:53:00,18.0,14.0,25.73,WSW,247,5.6,8.0,81,0.00,,,0.00,Rainwise IP-100,2013-12-24 11:53:00,
2013-12-24 04:58:00,18.0,14.0,25.72,WSW,247,5.6,9.0,81,0.00,,,0.00,Rainwise IP-100,2013-12-24 11:58:00,
2013-12-24 05:03:00,17.6,14.0,25.72,WSW,247,7.9,10.0,81,0.00,,,0.00,Rainwise IP-100,2013-12-24 12:03:00,
2013-12-24 05:08:00,17.4,14.0,25.72,WSW,247,3.7,9.0,81,0.00,,,0.00,Rainwise IP-100,2013-12-24 12:08:00,
2013-12-24 05:13:00,17.4,14.0,25.72,WSW,247,5.4,12.0,81,0.00,,,0.00,Rainwise IP-100,2013-12-24 12:13:00,
2013-12-24 05:18:00,17.4,14.0,25.71,West,270,3.0,7.0,81,0.00,,,0.00,Rainwise IP-100,2013-12-24 12:18:00,
2013-12-24 05:23:00,17.4,14.0,25.71,WSW,247,2.3,6.0,81,0.00,,,0.00,Rainwise IP-100,2013-12-24 12:23:00,
2013-12-24 05:28:00,17.4,14.0,25.71,WNW,292,4.2,5.0,81,0.00,,,0.00,Rainwise IP-100,2013-12-24 12:28:00,
2013-12-24 05:33:00,17.4,14.0,25.72,NNW,337,3.5,7.0,81,0.00,,,0.00,Rainwise IP-100,2013-12-24 12:33:00,
2013-12-24 05:38:00,17.6,14.0,25.72,WNW,292,4.4,9.0,81,0.00,,,0.00,Rainwise IP-100,2013-12-24 12:38:00,
2013-12-24 05:43:00,17.7,14.0,25.72,NNW,337,0.0,4.0,81,0.00,,,0.00,Rainwise IP-100,2013-12-24 12:43:00,
2013-12-24 05:48:00,17.6,14.0,25.71,NNW,337,2.1,3.0,81,0.00,,,0.00,Rainwise IP-100,2013-12-24 12:48:00,
2013-12-24 05:53:00,17.6,14.0,25.71,WNW,292,6.5,6.5,81,0.00,,,0.00,Rainwise IP-100,2013-12-24 12:53:00,
2013-12-24 05:58:00,17.8,14.0,25.71,WNW,292,2.1,9.0,81,0.00,,,0.00,Rainwise IP-100,2013-12-24 12:58:00,
2013-12-24 06:03:00,17.9,14.0,25.72,North,360,5.4,5.4,80,0.00,,,0.00,Rainwise IP-100,2013-12-24 13:03:00,
2013-12-24 06:08:00,17.6,14.0,25.71,NE,45,4.2,8.0,80,0.00,,,0.00,Rainwise IP-100,2013-12-24 13:08:00,
2013-12-24 06:13:00,17.5,14.0,25.71,NNW,337,3.3,6.0,80,0.00,,,0.00,Rainwise IP-100,2013-12-24 13:13:00,
2013-12-24 06:18:00,17.8,14.0,25.71,NNW,337,2.8,5.0,81,0.00,,,0.00,Rainwise IP-100,2013-12-24 13:18:00,
2013-12-24 06:23:00,18.5,16.0,25.71,NNW,337,3.5,5.0,81,0.00,,,0.00,Rainwise IP-100,2013-12-24 13:23:00,
2013-12-24 06:28:00,19.1,16.0,25.72,NNW,337,0.0,4.0,80,0.00,,,0.00,Rainwise IP-100,2013-12-24 13:28:00,
2013-12-24 06:33:00,19.5,16.0,25.72,North,360,4.0,4.0,80,0.00,,,0.00,Rainwise IP-100,2013-12-24 13:33:00,
2013-12-24 06:38:00,19.5,16.0,25.72,NE,45,0.0,5.0,79,0.00,,,0.00,Rainwise IP-100,2013-12-24 13:38:00,
2013-12-24 06:43:00,19.5,16.0,25.71,NE,45,0.0,0.0,79,0.00,,,0.00,Rainwise IP-100,2013-12-24 13:43:00,
2013-12-24 06:48:00,19.4,16.0,25.71,SE,135,2.6,0.0,79,0.00,,,0.00,Rainwise IP-100,2013-12-24 13:48:00,
2013-12-24 06:53:00,19.1,16.0,25.72,SSE,157,4.0,4.0,79,0.00,,,0.00,Rainwise IP-100,2013-12-24 13:53:00,
2013-12-24 06:58:00,18.5,16.0,25.72,South,180,2.8,4.0,79,0.00,,,0.00,Rainwise IP-100,2013-12-24 13:58:00,
2013-12-24 07:03:00,17.8,14.0,25.72,SE,135,3.0,4.0,79,0.00,,,0.00,Rainwise IP-100,2013-12-24 14:03:00,
2013-12-24 07:08:00,17.3,14.0,25.72,SE,135,0.0,4.0,79,0.00,,,0.00,Rainwise IP-100,2013-12-24 14:08:00,
2013-12-24 07:13:00,16.9,14.0,25.72,SE,135,0.0,3.0,79,0.00,,,0.00,Rainwise IP-100,2013-12-24 14:13:00,
2013-12-24 07:18:00,16.7,14.0,25.72,East,90,1.4,6.0,79,0.00,,,0.00,Rainwise IP-100,2013-12-24 14:18:00,
2013-12-24 07:23:00,16.7,14.0,25.73,East,90,2.8,4.0,79,0.00,,,0.00,Rainwise IP-100,2013-12-24 14:23:00,
2013-12-24 07:28:00,16.8,14.0,25.72,ENE,67,4.0,4.0,79,0.00,,,0.00,Rainwise IP-100,2013-12-24 14:28:00,
2013-12-24 07:33:00,16.9,14.0,25.72,ENE,67,3.7,4.0,78,0.00,,,0.00,Rainwise IP-100,2013-12-24 14:33:00,
2013-12-24 07:38:00,17.2,14.0,25.72,ENE,67,2.3,4.0,78,0.00,,,0.00,Rainwise IP-100,2013-12-24 14:38:00,
2013-12-24 07:43:00,17.4,14.0,25.72,SSE,157,1.2,3.0,78,0.00,,,0.00,Rainwise IP-100,2013-12-24 14:43:00,
2013-12-24 07:48:00,17.8,14.0,25.72,SSE,157,1.4,3.0,78,0.00,,,0.00,Rainwise IP-100,2013-12-24 14:48:00,
2013-12-24 07:53:00,18.3,14.0,25.72,SE,135,0.0,2.0,77,0.00,,,0.00,Rainwise IP-100,2013-12-24 14:53:00,
2013-12-24 07:58:00,18.7,14.0,25.72,NE,45,2.6,4.0,77,0.00,,,0.00,Rainwise IP-100,2013-12-24 14:58:00,
2013-12-24 08:03:00,18.9,14.0,25.73,ENE,67,0.0,3.0,77,0.00,,,0.00,Rainwise IP-100,2013-12-24 15:03:00,
2013-12-24 08:08:00,19.2,14.0,25.73,ENE,67,3.0,4.0,76,0.00,,,0.00,Rainwise IP-100,2013-12-24 15:08:00,
2013-12-24 08:13:00,19.5,14.0,25.73,South,180,3.0,4.0,76,0.00,,,0.00,Rainwise IP-100,2013-12-24 15:13:00,
2013-12-24 08:18:00,20.2,14.0,25.73,South,180,0.0,4.0,75,0.00,,,0.00,Rainwise IP-100,2013-12-24 15:18:00,
2013-12-24 08:23:00,21.4,14.0,25.73,NNE,22,0.0,2.0,75,0.00,,,0.00,Rainwise IP-100,2013-12-24 15:23:00,
2013-12-24 08:28:00,23.1,16.0,25.73,NNE,22,0.0,2.0,74,0.00,,,0.00,Rainwise IP-100,2013-12-24 15:28:00,
2013-12-24 08:33:00,24.2,16.0,25.73,WNW,292,2.1,4.0,72,0.00,,,0.00,Rainwise IP-100,2013-12-24 15:33:00,
2013-12-24 08:38:00,24.8,18.0,25.73,WSW,247,4.4,5.0,71,0.00,,,0.00,Rainwise IP-100,2013-12-24 15:38:00,
2013-12-24 08:43:00,25.5,18.0,25.73,WSW,247,4.2,5.0,70,0.00,,,0.00,Rainwise IP-100,2013-12-24 15:43:00,
2013-12-24 08:48:00,26.2,18.0,25.72,WSW,247,0.0,6.0,69,0.00,,,0.00,Rainwise IP-100,2013-12-24 15:48:00,
2013-12-24 08:53:00,27.2,18.0,25.73,WNW,292,0.0,4.0,68,0.00,,,0.00,Rainwise IP-100,2013-12-24 15:53:00,
2013-12-24 08:58:00,28.9,21.0,25.73,NNW,337,3.0,3.0,67,0.00,,,0.00,Rainwise IP-100,2013-12-24 15:58:00,
2013-12-24 09:03:00,31.0,21.0,25.73,NNW,337,4.0,4.0,65,0.00,,,0.00,Rainwise IP-100,2013-12-24 16:03:00,
2013-12-24 09:08:00,32.7,23.0,25.73,WNW,292,1.6,6.0,62,0.00,,,0.00,Rainwise IP-100,2013-12-24 16:08:00,
2013-12-24 09:13:00,33.2,21.0,25.73,NNW,337,6.1,6.1,60,0.00,,,0.00,Rainwise IP-100,2013-12-24 16:13:00,
2013-12-24 09:18:00,34.3,23.0,25.74,NNW,337,2.6,6.0,59,0.00,,,0.00,Rainwise IP-100,2013-12-24 16:18:00,
2013-12-24 09:23:00,36.3,23.0,25.74,NNW,337,5.1,6.0,58,0.00,,,0.00,Rainwise IP-100,2013-12-24 16:23:00,
2013-12-24 09:28:00,38.0,24.0,25.74,NNW,337,5.1,7.0,56,0.00,,,0.00,Rainwise IP-100,2013-12-24 16:28:00,
2013-12-24 09:33:00,39.3,24.0,25.74,North,360,0.0,6.0,54,0.00,,,0.00,Rainwise IP-100,2013-12-24 16:33:00,
2013-12-24 09:38:00,40.1,24.0,25.74,ESE,112,0.0,3.0,52,0.00,,,0.00,Rainwise IP-100,2013-12-24 16:38:00,
2013-12-24 09:43:00,40.7,24.0,25.74,ESE,112,0.0,2.0,51,0.00,,,0.00,Rainwise IP-100,2013-12-24 16:43:00,
2013-12-24 09:48:00,41.6,26.0,25.74,ESE,112,0.0,1.0,50,0.00,,,0.00,Rainwise IP-100,2013-12-24 16:48:00,
2013-12-24 09:53:00,42.4,24.0,25.74,ESE,112,1.2,0.0,48,0.00,,,0.00,Rainwise IP-100,2013-12-24 16:53:00,
2013-12-24 09:58:00,42.8,24.0,25.74,SE,135,1.2,2.0,47,0.00,,,0.00,Rainwise IP-100,2013-12-24 16:58:00,
2013-12-24 10:03:00,43.5,24.0,25.74,SSE,157,1.6,3.0,46,0.00,,,0.00,Rainwise IP-100,2013-12-24 17:03:00,
2013-12-24 10:08:00,43.7,24.0,25.74,ENE,67,0.0,3.0,45,0.00,,,0.00,Rainwise IP-100,2013-12-24 17:08:00,
2013-12-24 10:13:00,44.2,24.0,25.74,ENE,67,0.0,1.0,44,0.00,,,0.00,Rainwise IP-100,2013-12-24 17:13:00,
2013-12-24 10:18:00,45.2,24.0,25.73,SSE,157,1.4,5.0,43,0.00,,,0.00,Rainwise IP-100,2013-12-24 17:18:00,
2013-12-24 10:23:00,45.8,24.0,25.73,SSE,157,2.1,3.0,42,0.00,,,0.00,Rainwise IP-100,2013-12-24 17:23:00,
2013-12-24 10:28:00,46.3,24.0,25.73,SSE,157,2.6,3.0,41,0.00,,,0.00,Rainwise IP-100,2013-12-24 17:28:00,
2013-12-24 10:33:00,46.5,24.0,25.73,SSE,157,3.3,5.0,40,0.00,,,0.00,Rainwise IP-100,2013-12-24 17:33:00,
2013-12-24 10:38:00,46.5,24.0,25.73,South,180,4.0,6.0,40,0.00,,,0.00,Rainwise IP-100,2013-12-24 17:38:00,
2013-12-24 10:43:00,47.0,23.0,25.72,SSE,157,1.2,5.0,39,0.00,,,0.00,Rainwise IP-100,2013-12-24 17:43:00,
2013-12-24 10:48:00,48.1,24.0,25.72,SSW,202,3.5,4.0,38,0.00,,,0.00,Rainwise IP-100,2013-12-24 17:48:00,
2013-12-24 10:53:00,49.2,24.0,25.72,SW,225,1.9,4.0,37,0.00,,,0.00,Rainwise IP-100,2013-12-24 17:53:00,
2013-12-24 10:58:00,50.3,24.0,25.72,SSW,202,4.7,4.7,36,0.00,,,0.00,Rainwise IP-100,2013-12-24 17:58:00,
2013-12-24 11:03:00,51.3,24.0,25.72,SSW,202,5.4,5.4,34,0.00,,,0.00,Rainwise IP-100,2013-12-24 18:03:00,
2013-12-24 11:08:00,52.0,24.0,25.72,WSW,247,5.8,6.0,33,0.00,,,0.00,Rainwise IP-100,2013-12-24 18:08:00,
2013-12-24 11:13:00,52.5,24.0,25.71,SSW,202,2.1,6.0,32,0.00,,,0.00,Rainwise IP-100,2013-12-24 18:13:00,
2013-12-24 11:18:00,53.2,23.0,25.71,SSW,202,5.1,5.1,31,0.00,,,0.00,Rainwise IP-100,2013-12-24 18:18:00,
2013-12-24 11:23:00,53.6,23.0,25.71,SSW,202,3.7,7.0,30,0.00,,,0.00,Rainwise IP-100,2013-12-24 18:23:00,
2013-12-24 11:28:00,53.6,23.0,25.71,SSW,202,5.4,7.0,29,0.00,,,0.00,Rainwise IP-100,2013-12-24 18:28:00,
2013-12-24 11:33:00,54.0,23.0,25.71,SSW,202,4.2,6.0,29,0.00,,,0.00,Rainwise IP-100,2013-12-24 18:33:00,
2013-12-24 11:38:00,54.9,23.0,25.70,WSW,247,3.0,6.0,28,0.00,,,0.00,Rainwise IP-100,2013-12-24 18:38:00,
2013-12-24 11:43:00,55.3,23.0,25.70,SSW,202,4.2,6.0,28,0.00,,,0.00,Rainwise IP-100,2013-12-24 18:43:00,
2013-12-24 11:48:00,55.5,24.0,25.70,SSW,202,3.5,6.0,28,0.00,,,0.00,Rainwise IP-100,2013-12-24 18:48:00,
2013-12-24 11:53:00,56.1,24.0,25.70,WSW,247,2.6,6.0,28,0.00,,,0.00,Rainwise IP-100,2013-12-24 18:53:00,
2013-12-24 11:58:00,56.5,24.0,25.69,SSW,202,0.0,4.0,28,0.00,,,0.00,Rainwise IP-100,2013-12-24 18:58:00,
2013-12-24 12:03:00,57.2,24.0,25.69,South,180,2.3,6.0,27,0.00,,,0.00,Rainwise IP-100,2013-12-24 19:03:00,
2013-12-24 12:08:00,57.8,24.0,25.69,West,270,4.7,4.7,27,0.00,,,0.00,Rainwise IP-100,2013-12-24 19:08:00,
2013-12-24 12:13:00,57.6,24.0,25.69,WSW,247,4.4,6.0,27,0.00,,,0.00,Rainwise IP-100,2013-12-24 19:13:00,
2013-12-24 12:18:00,57.3,24.0,25.69,SSW,202,0.0,5.0,27,0.00,,,0.00,Rainwise IP-100,2013-12-24 19:18:00,
2013-12-24 12:23:00,57.9,24.0,25.69,West,270,0.0,3.0,27,0.00,,,0.00,Rainwise IP-100,2013-12-24 19:23:00,
2013-12-24 12:28:00,59.0,24.0,25.69,West,270,0.0,1.0,26,0.00,,,0.00,Rainwise IP-100,2013-12-24 19:28:00,
2013-12-24 12:33:00,59.7,24.0,25.69,NW,315,2.1,3.0,25,0.00,,,0.00,Rainwise IP-100,2013-12-24 19:33:00,
2013-12-24 12:38:00,60.3,24.0,25.68,SSW,202,0.0,3.0,25,0.00,,,0.00,Rainwise IP-100,2013-12-24 19:38:00,
2013-12-24 12:43:00,59.8,24.0,25.68,ESE,112,0.0,4.0,25,0.00,,,0.00,Rainwise IP-100,2013-12-24 19:43:00,
2013-12-24 12:48:00,58.7,24.0,25.68,ESE,112,2.8,4.0,25,0.00,,,0.00,Rainwise IP-100,2013-12-24 19:48:00,
2013-12-24 12:53:00,58.3,24.0,25.68,ESE,112,3.3,3.3,26,0.00,,,0.00,Rainwise IP-100,2013-12-24 19:53:00,
2013-12-24 12:58:00,59.1,24.0,25.68,SSE,157,0.0,3.0,25,0.00,,,0.00,Rainwise IP-100,2013-12-24 19:58:00,
2013-12-24 13:03:00,60.4,24.0,25.68,NNE,22,3.0,4.0,25,0.00,,,0.00,Rainwise IP-100,2013-12-24 20:03:00,
2013-12-24 13:08:00,60.9,24.0,25.68,SSE,157,3.0,3.0,24,0.00,,,0.00,Rainwise IP-100,2013-12-24 20:08:00,
2013-12-24 13:13:00,60.5,24.0,25.68,SE,135,3.3,5.0,24,0.00,,,0.00,Rainwise IP-100,2013-12-24 20:13:00,
2013-12-24 13:18:00,59.8,23.0,25.68,SSE,157,2.1,5.0,24,0.00,,,0.00,Rainwise IP-100,2013-12-24 20:18:00,
2013-12-24 13:23:00,59.9,23.0,25.67,SSE,157,0.0,3.0,24,0.00,,,0.00,Rainwise IP-100,2013-12-24 20:23:00,
2013-12-24 13:28:00,60.3,23.0,25.67,SSE,157,1.2,3.0,24,0.00,,,0.00,Rainwise IP-100,2013-12-24 20:28:00,
2013-12-24 13:33:00,60.7,24.0,25.67,ENE,67,5.6,8.0,24,0.00,,,0.00,Rainwise IP-100,2013-12-24 20:33:00,
2013-12-24 13:38:00,59.7,23.0,25.67,ENE,67,4.7,7.0,24,0.00,,,0.00,Rainwise IP-100,2013-12-24 20:38:00,
2013-12-24 13:43:00,58.7,23.0,25.67,ENE,67,1.2,5.0,24,0.00,,,0.00,Rainwise IP-100,2013-12-24 20:43:00,
2013-12-24 13:48:00,59.0,24.0,25.67,ENE,67,5.4,6.0,25,0.00,,,0.00,Rainwise IP-100,2013-12-24 20:48:00,
2013-12-24 13:53:00,58.8,24.0,25.67,East,90,2.6,8.0,25,0.00,,,0.00,Rainwise IP-100,2013-12-24 20:53:00,
2013-12-24 13:58:00,58.4,23.0,25.67,ENE,67,4.0,7.0,25,0.00,,,0.00,Rainwise IP-100,2013-12-24 20:58:00,
2013-12-24 14:03:00,58.3,23.0,25.68,ENE,67,4.9,5.0,25,0.00,,,0.00,Rainwise IP-100,2013-12-24 21:03:00,
2013-12-24 14:08:00,58.5,24.0,25.69,North,360,2.3,9.0,25,0.00,,,0.00,Rainwise IP-100,2013-12-24 21:08:00,
2013-12-24 14:13:00,55.4,24.0,25.71,NNE,22,13.3,38.0,29,0.00,,,0.00,Rainwise IP-100,2013-12-24 21:13:00,
2013-12-24 14:18:00,49.2,26.0,25.72,North,360,28.2,41.0,40,0.00,,,0.00,Rainwise IP-100,2013-12-24 21:18:00,
2013-12-24 14:23:00,45.7,28.0,25.75,North,360,23.1,37.0,49,0.00,,,0.00,Rainwise IP-100,2013-12-24 21:23:00,
2013-12-24 14:28:00,44.8,29.0,25.75,North,360,32.6,41.0,52,0.00,,,0.00,Rainwise IP-100,2013-12-24 21:28:00,
2013-12-24 14:33:00,43.9,29.0,25.73,ENE,67,24.2,40.0,54,0.00,,,0.00,Rainwise IP-100,2013-12-24 21:33:00,
2013-12-24 14:38:00,43.1,29.0,25.74,NNE,22,19.4,47.0,56,0.00,,,0.00,Rainwise IP-100,2013-12-24 21:38:00,
2013-12-24 14:43:00,42.3,29.0,25.74,NNE,22,32.6,40.0,58,0.00,,,0.00,Rainwise IP-100,2013-12-24 21:43:00,
2013-12-24 14:48:00,41.8,29.0,25.75,North,360,37.8,38.0,61,0.00,,,0.00,Rainwise IP-100,2013-12-24 21:48:00,
2013-12-24 14:53:00,41.7,29.0,25.75,NNW,337,22.4,37.0,61,0.00,,,0.00,Rainwise IP-100,2013-12-24 21:53:00,
2013-12-24 14:58:00,41.8,29.0,25.76,NNW,337,41.0,41.0,61,0.00,,,0.00,Rainwise IP-100,2013-12-24 21:58:00,
2013-12-24 15:03:00,42.1,29.0,25.75,NNE,22,35.7,41.0,61,0.00,,,0.00,Rainwise IP-100,2013-12-24 22:03:00,
2013-12-24 15:08:00,42.1,29.0,25.75,NNW,337,23.3,42.0,61,0.00,,,0.00,Rainwise IP-100,2013-12-24 22:08:00,
2013-12-24 15:13:00,42.0,29.0,25.76,North,360,14.9,43.0,60,0.00,,,0.00,Rainwise IP-100,2013-12-24 22:13:00,
2013-12-24 15:18:00,42.0,29.0,25.76,NNW,337,25.4,42.0,60,0.00,,,0.00,Rainwise IP-100,2013-12-24 22:18:00,
2013-12-24 15:23:00,41.9,29.0,25.78,NNE,22,12.4,38.0,59,0.00,,,0.00,Rainwise IP-100,2013-12-24 22:23:00,
2013-12-24 15:28:00,41.8,29.0,25.78,North,360,17.0,40.0,59,0.00,,,0.00,Rainwise IP-100,2013-12-24 22:28:00,
2013-12-24 15:33:00,41.6,29.0,25.77,WNW,292,22.2,47.0,59,0.00,,,0.00,Rainwise IP-100,2013-12-24 22:33:00,
2013-12-24 15:38:00,41.4,28.0,25.79,North,360,29.1,38.0,59,0.00,,,0.00,Rainwise IP-100,2013-12-24 22:38:00,
2013-12-24 15:43:00,41.1,28.0,25.78,North,360,46.2,46.2,59,0.00,,,0.00,Rainwise IP-100,2013-12-24 22:43:00,
2013-12-24 15:48:00,41.0,28.0,25.79,North,360,34.3,46.0,59,0.00,,,0.00,Rainwise IP-100,2013-12-24 22:48:00,
2013-12-24 15:53:00,40.8,28.0,25.78,NNW,337,33.3,43.0,58,0.00,,,0.00,Rainwise IP-100,2013-12-24 22:53:00,
2013-12-24 15:58:00,40.5,28.0,25.79,North,360,33.8,40.0,57,0.00,,,0.00,Rainwise IP-100,2013-12-24 22:58:00,
2013-12-24 16:03:00,40.3,26.0,25.76,NNW,337,25.4,46.0,57,0.00,,,0.00,Rainwise IP-100,2013-12-24 23:03:00,
2013-12-24 16:08:00,40.2,26.0,25.79,North,360,18.0,37.0,57,0.00,,,0.00,Rainwise IP-100,2013-12-24 23:08:00,
2013-12-24 16:13:00,40.1,26.0,25.79,NNW,337,9.1,39.0,57,0.00,,,0.00,Rainwise IP-100,2013-12-24 23:13:00,
2013-12-24 16:18:00,40.1,26.0,25.80,North,360,18.9,32.0,57,0.00,,,0.00,Rainwise IP-100,2013-12-24 23:18:00,
2013-12-24 16:23:00,40.0,26.0,25.81,NNW,337,24.9,35.0,57,0.00,,,0.00,Rainwise IP-100,2013-12-24 23:23:00,
2013-12-24 16:28:00,39.9,28.0,25.80,NNW,337,20.3,34.0,58,0.00,,,0.00,Rainwise IP-100,2013-12-24 23:28:00,
2013-12-24 16:33:00,39.9,26.0,25.82,NNE,22,24.5,31.0,57,0.00,,,0.00,Rainwise IP-100,2013-12-24 23:33:00,
2013-12-24 16:38:00,40.0,26.0,25.82,NNE,22,29.1,29.1,57,0.00,,,0.00,Rainwise IP-100,2013-12-24 23:38:00,
2013-12-24 16:43:00,40.0,26.0,25.83,WSW,247,10.3,33.0,57,0.00,,,0.00,Rainwise IP-100,2013-12-24 23:43:00,
2013-12-24 16:48:00,39.9,26.0,25.82,WNW,292,13.1,28.0,57,0.00,,,0.00,Rainwise IP-100,2013-12-24 23:48:00,
2013-12-24 16:53:00,39.7,26.0,25.84,NNE,22,13.1,31.0,57,0.00,,,0.00,Rainwise IP-100,2013-12-24 23:53:00,
2013-12-24 16:58:00,39.7,28.0,25.84,North,360,22.4,26.0,58,0.00,,,0.00,Rainwise IP-100,2013-12-24 23:58:00,
2013-12-24 17:03:00,39.6,28.0,25.85,NNE,22,17.5,28.0,58,0.00,,,0.00,Rainwise IP-100,2013-12-25 00:03:00,
2013-12-24 17:08:00,39.4,26.0,25.85,NNE,22,23.3,30.0,59,0.00,,,0.00,Rainwise IP-100,2013-12-25 00:08:00,
2013-12-24 17:13:00,39.3,26.0,25.86,NNW,337,22.2,30.0,59,0.00,,,0.00,Rainwise IP-100,2013-12-25 00:13:00,
2013-12-24 17:18:00,39.2,26.0,25.86,NNE,22,15.2,26.0,60,0.00,,,0.00,Rainwise IP-100,2013-12-25 00:18:00,
2013-12-24 17:23:00,39.1,26.0,25.86,North,360,17.0,21.0,60,0.00,,,0.00,Rainwise IP-100,2013-12-25 00:23:00,
2013-12-24 17:28:00,39.0,28.0,25.87,NNW,337,16.1,24.0,61,0.00,,,0.00,Rainwise IP-100,2013-12-25 00:28:00,
2013-12-24 17:33:00,39.0,28.0,25.87,North,360,13.5,23.0,61,0.00,,,0.00,Rainwise IP-100,2013-12-25 00:33:00,
2013-12-24 17:38:00,38.9,28.0,25.87,NNW,337,20.8,20.8,61,0.00,,,0.00,Rainwise IP-100,2013-12-25 00:38:00,
2013-12-24 17:43:00,38.7,28.0,25.87,North,360,22.6,24.0,61,0.00,,,0.00,Rainwise IP-100,2013-12-25 00:43:00,
2013-12-24 17:48:00,38.6,28.0,25.87,North,360,11.2,22.0,62,0.00,,,0.00,Rainwise IP-100,2013-12-25 00:48:00,
2013-12-24 17:53:00,38.4,26.0,25.89,NNE,22,13.3,24.0,62,0.00,,,0.00,Rainwise IP-100,2013-12-25 00:53:00,
2013-12-24 17:58:00,38.3,26.0,25.88,North,360,16.3,22.0,62,0.00,,,0.00,Rainwise IP-100,2013-12-25 00:58:00,
2013-12-24 18:03:00,38.2,26.0,25.89,NNW,337,18.4,23.0,62,0.00,,,0.00,Rainwise IP-100,2013-12-25 01:03:00,
2013-12-24 18:08:00,38.0,26.0,25.89,NNE,22,14.7,24.0,63,0.00,,,0.00,Rainwise IP-100,2013-12-25 01:08:00,
2013-12-24 18:13:00,37.8,26.0,25.89,ENE,67,8.4,22.0,63,0.00,,,0.00,Rainwise IP-100,2013-12-25 01:13:00,
2013-12-24 18:18:00,37.7,26.0,25.90,NNE,22,18.9,25.0,63,0.00,,,0.00,Rainwise IP-100,2013-12-25 01:18:00,
2013-12-24 18:23:00,37.6,26.0,25.90,NNE,22,20.5,24.0,63,0.00,,,0.00,Rainwise IP-100,2013-12-25 01:23:00,
2013-12-24 18:28:00,37.4,26.0,25.91,North,360,14.5,22.0,64,0.00,,,0.00,Rainwise IP-100,2013-12-25 01:28:00,
2013-12-24 18:33:00,37.3,26.0,25.92,North,360,12.8,19.0,64,0.00,,,0.00,Rainwise IP-100,2013-12-25 01:33:00,
2013-12-24 18:38:00,37.2,26.0,25.93,NNE,22,13.8,22.0,65,0.00,,,0.00,Rainwise IP-100,2013-12-25 01:38:00,
2013-12-24 18:43:00,37.1,26.0,25.93,NNE,22,13.1,17.0,65,0.00,,,0.00,Rainwise IP-100,2013-12-25 01:43:00,
2013-12-24 18:48:00,36.9,26.0,25.93,NNW,337,16.1,21.0,65,0.00,,,0.00,Rainwise IP-100,2013-12-25 01:48:00,
2013-12-24 18:53:00,36.8,26.0,25.93,NNE,22,3.3,20.0,65,0.00,,,0.00,Rainwise IP-100,2013-12-25 01:53:00,
2013-12-24 18:58:00,36.7,26.0,25.93,North,360,11.9,17.0,65,0.00,,,0.00,Rainwise IP-100,2013-12-25 01:58:00,
2013-12-24 19:03:00,36.6,26.0,25.94,NNW,337,14.7,24.0,65,0.00,,,0.00,Rainwise IP-100,2013-12-25 02:03:00,
2013-12-24 19:08:00,36.5,26.0,25.95,North,360,9.1,16.0,65,0.00,,,0.00,Rainwise IP-100,2013-12-25 02:08:00,
2013-12-24 19:13:00,36.5,26.0,25.94,NNW,337,13.8,17.0,64,0.00,,,0.00,Rainwise IP-100,2013-12-25 02:13:00,
2013-12-24 19:18:00,36.4,24.0,25.94,NNE,22,7.7,21.0,64,0.00,,,0.00,Rainwise IP-100,2013-12-25 02:18:00,
2013-12-24 19:23:00,36.4,24.0,25.94,North,360,13.1,23.0,64,0.00,,,0.00,Rainwise IP-100,2013-12-25 02:23:00,
2013-12-24 19:28:00,36.3,24.0,25.94,NNE,22,5.8,19.0,64,0.00,,,0.00,Rainwise IP-100,2013-12-25 02:28:00,
2013-12-24 19:33:00,36.0,24.0,25.94,NNE,22,8.4,22.0,64,0.00,,,0.00,Rainwise IP-100,2013-12-25 02:33:00,
2013-12-24 19:38:00,35.8,24.0,25.94,North,360,14.5,26.0,64,0.00,,,0.00,Rainwise IP-100,2013-12-25 02:38:00,
2013-12-24 19:43:00,35.7,26.0,25.94,NNE,22,19.6,21.0,65,0.00,,,0.00,Rainwise IP-100,2013-12-25 02:43:00,
2013-12-24 19:48:00,35.6,26.0,25.95,North,360,8.6,24.0,65,0.00,,,0.00,Rainwise IP-100,2013-12-25 02:48:00,
2013-12-24 19:53:00,35.4,24.0,25.94,NNW,337,17.3,23.0,66,0.00,,,0.00,Rainwise IP-100,2013-12-25 02:53:00,
2013-12-24 19:58:00,35.2,24.0,25.94,North,360,16.6,24.0,66,0.00,,,0.00,Rainwise IP-100,2013-12-25 02:58:00,
2013-12-24 20:03:00,35.0,24.0,25.94,North,360,18.0,25.0,66,0.00,,,0.00,Rainwise IP-100,2013-12-25 03:03:00,
2013-12-24 20:08:00,34.8,24.0,25.94,NNW,337,19.1,21.0,67,0.00,,,0.00,Rainwise IP-100,2013-12-25 03:08:00,
2013-12-24 20:13:00,34.6,24.0,25.94,NE,45,16.8,26.0,67,0.00,,,0.00,Rainwise IP-100,2013-12-25 03:13:00,
2013-12-24 20:18:00,34.2,26.0,25.94,NNW,337,22.4,25.0,68,0.00,,,0.00,Rainwise IP-100,2013-12-25 03:18:00,
2013-12-24 20:23:00,33.8,26.0,25.94,North,360,10.0,24.0,68,0.00,,,0.00,Rainwise IP-100,2013-12-25 03:23:00,
2013-12-24 20:28:00,33.4,24.0,25.94,NNW,337,16.3,24.0,69,0.00,,,0.00,Rainwise IP-100,2013-12-25 03:28:00,
2013-12-24 20:33:00,33.1,24.0,25.93,North,360,13.3,22.0,70,0.00,,,0.00,Rainwise IP-100,2013-12-25 03:33:00,
2013-12-24 20:38:00,32.7,24.0,25.94,NNW,337,11.7,22.0,70,0.00,,,0.00,Rainwise IP-100,2013-12-25 03:38:00,
2013-12-24 20:43:00,32.4,24.0,25.94,North,360,14.7,25.0,71,0.00,,,0.00,Rainwise IP-100,2013-12-25 03:43:00,
2013-12-24 20:48:00,32.2,24.0,25.93,NNW,337,21.5,24.0,71,0.00,,,0.00,Rainwise IP-100,2013-12-25 03:48:00,
2013-12-24 20:53:00,32.1,24.0,25.94,NNW,337,15.6,24.0,72,0.00,,,0.00,Rainwise IP-100,2013-12-25 03:53:00,
2013-12-24 20:58:00,32.0,24.0,25.93,NNW,337,18.2,24.0,72,0.00,,,0.00,Rainwise IP-100,2013-12-25 03:58:00,
2013-12-24 21:03:00,32.0,24.0,25.94,North,360,17.7,23.0,73,0.00,,,0.00,Rainwise IP-100,2013-12-25 04:03:00,
2013-12-24 21:08:00,32.0,24.0,25.95,NNW,337,13.5,21.0,72,0.00,,,0.00,Rainwise IP-100,2013-12-25 04:08:00,
2013-12-24 21:13:00,31.9,24.0,25.94,NNW,337,14.0,20.0,72,0.00,,,0.00,Rainwise IP-100,2013-12-25 04:13:00,
2013-12-24 21:18:00,31.6,24.0,25.94,NW,315,5.6,17.0,73,0.00,,,0.00,Rainwise IP-100,2013-12-25 04:18:00,
2013-12-24 21:23:00,31.3,23.0,25.95,NNW,337,8.4,16.0,73,0.00,,,0.00,Rainwise IP-100,2013-12-25 04:23:00,
2013-12-24 21:28:00,30.9,23.0,25.95,North,360,11.2,18.0,73,0.00,,,0.00,Rainwise IP-100,2013-12-25 04:28:00,
2013-12-24 21:33:00,30.5,24.0,25.95,NW,315,7.9,17.0,74,0.00,,,0.00,Rainwise IP-100,2013-12-25 04:33:00,
2013-12-24 21:38:00,30.3,24.0,25.95,NNW,337,8.6,15.0,74,0.00,,,0.00,Rainwise IP-100,2013-12-25 04:38:00,
2013-12-24 21:43:00,30.1,24.0,25.96,NNW,337,4.9,15.0,75,0.00,,,0.00,Rainwise IP-100,2013-12-25 04:43:00,
2013-12-24 21:48:00,29.9,24.0,25.96,North,360,6.8,16.0,75,0.00,,,0.00,Rainwise IP-100,2013-12-25 04:48:00,
2013-12-24 21:53:00,29.6,24.0,25.96,NNW,337,9.3,12.0,76,0.00,,,0.00,Rainwise IP-100,2013-12-25 04:53:00,
2013-12-24 21:58:00,29.3,23.0,25.95,NNW,337,11.0,18.0,76,0.00,,,0.00,Rainwise IP-100,2013-12-25 04:58:00,
2013-12-24 22:01:00,29.3,23.0,25.95,NNE,22,15.4,18.0,76,0.00,,,0.00,Rainwise IP-100,2013-12-25 05:01:00,
2013-12-24 22:02:00,29.3,23.0,25.94,NNW,337,10.7,18.0,77,0.00,,,0.00,Rainwise IP-100,2013-12-25 05:02:00,
2013-12-24 22:07:00,29.3,23.0,25.95,NNE,22,14.9,20.0,77,0.00,,,0.00,Rainwise IP-100,2013-12-25 05:07:00,
2013-12-24 22:12:00,29.3,23.0,25.95,NNW,337,16.6,21.0,77,0.00,,,0.00,Rainwise IP-100,2013-12-25 05:12:00,
2013-12-24 22:17:00,29.1,23.0,25.96,NNW,337,15.4,19.0,77,0.00,,,0.00,Rainwise IP-100,2013-12-25 05:17:00,
2013-12-24 22:22:00,28.8,23.0,25.96,North,360,9.1,18.0,77,0.00,,,0.00,Rainwise IP-100,2013-12-25 05:22:00,
2013-12-24 22:27:00,28.5,23.0,25.96,NNW,337,15.9,18.0,78,0.00,,,0.00,Rainwise IP-100,2013-12-25 05:27:00,
2013-12-24 22:32:00,28.2,23.0,25.97,North,360,14.9,16.0,78,0.00,,,0.00,Rainwise IP-100,2013-12-25 05:32:00,
2013-12-24 22:37:00,28.0,23.0,25.96,NE,45,10.5,17.0,79,0.00,,,0.00,Rainwise IP-100,2013-12-25 05:37:00,
2013-12-24 22:42:00,27.7,23.0,25.97,NNW,337,9.8,16.0,79,0.00,,,0.00,Rainwise IP-100,2013-12-25 05:42:00,
2013-12-24 22:47:00,27.5,23.0,25.97,North,360,10.0,14.0,79,0.00,,,0.00,Rainwise IP-100,2013-12-25 05:47:00,
2013-12-24 22:52:00,27.3,23.0,25.96,NNE,22,12.1,14.0,80,0.00,,,0.00,Rainwise IP-100,2013-12-25 05:52:00,
2013-12-24 22:57:00,26.9,23.0,25.96,NNE,22,14.0,15.0,80,0.00,,,0.00,Rainwise IP-100,2013-12-25 05:57:00,
2013-12-24 23:02:00,26.4,21.0,25.97,NNW,337,7.2,15.0,81,0.00,,,0.00,Rainwise IP-100,2013-12-25 06:02:00,
2013-12-24 23:07:00,26.0,21.0,25.97,North,360,9.3,15.0,81,0.00,,,0.00,Rainwise IP-100,2013-12-25 06:07:00,
2013-12-24 23:12:00,25.6,21.0,25.97,NNW,337,6.8,11.0,82,0.00,,,0.00,Rainwise IP-100,2013-12-25 06:12:00,
2013-12-24 23:17:00,25.0,21.0,25.97,NNW,337,2.1,8.0,82,0.00,,,0.00,Rainwise IP-100,2013-12-25 06:17:00,
2013-12-24 23:22:00,24.6,23.0,25.97,WNW,292,4.7,6.0,83,0.00,,,0.00,Rainwise IP-100,2013-12-25 06:22:00,
2013-12-24 23:27:00,24.2,21.0,25.97,West,270,3.5,8.0,83,0.00,,,0.00,Rainwise IP-100,2013-12-25 06:27:00,
2013-12-24 23:32:00,23.7,21.0,25.97,WNW,292,4.4,7.0,83,0.00,,,0.00,Rainwise IP-100,2013-12-25 06:32:00,
2013-12-24 23:37:00,23.6,21.0,25.97,WNW,292,4.7,6.0,83,0.00,,,0.00,Rainwise IP-100,2013-12-25 06:37:00,
2013-12-24 23:42:00,23.8,21.0,25.97,NW,315,4.9,8.0,84,0.00,,,0.00,Rainwise IP-100,2013-12-25 06:42:00,
2013-12-24 23:47:00,23.9,21.0,25.97,WNW,292,4.0,6.0,84,0.00,,,0.00,Rainwise IP-100,2013-12-25 06:47:00,
2013-12-24 23:52:00,23.5,21.0,25.97,West,270,3.7,7.0,83,0.00,,,0.00,Rainwise IP-100,2013-12-25 06:52:00,
2013-12-24 23:57:00,22.6,18.0,25.97,WNW,292,4.9,7.0,83,0.00,,,0.00,Rainwise IP-100,2013-12-25 06:57:00,